Powrót do katalogu

TITAN 34D TRANSTAGE DEB

AktywnyGTO
NORAD 23130·DEBRIS·🇺🇸 United States

Wystrzelony Sep 2, 1988 z Cape Canaveral Space Force Station

Loading…

TLE

NieaktualneSource: Space-Track

Epoka: Sep 14, 2026, 04:31 UTC

1 23130U 88077M   26257.18882408  .00000110  00000-0  20540-1 0  9994
2 23130  27.4317  47.8356 7284507 114.2351 334.4303  2.00697494 52826

Śledź TITAN 34D TRANSTAGE DEB w czasie rzeczywistym z AllMySat

Download on the App Store